{"data":{"norad_id":68622,"intl_designator":"2026-073W","name":"STARLINK-37252","alt_names":[],"object_type":"PAYLOAD","status":"ACTIVE","operator":null,"country":"US","launch_date":"2026-04-07","launch_site_code":"AFWTR","launch_vehicle":null,"mission":null,"orbit_class":"UNKNOWN","rcs_meters":null,"size_class":null,"mass_kg":null,"dimensions":null,"purposes":["comms"],"wikipedia_slug":null,"has_3d_model":false,"image_url":null,"decayed_at":null,"tle_current":{"epoch":"2026-05-25T04:00:03.998880Z","epoch_age_seconds":54482,"freshness":"FRESH","line1":"1 68622U 26073W   26145.16671295 -.01915351  00000+0 -29386-1 0  9992","line2":"2 68622  97.2855 344.6720 0001555 106.2329 235.9842 15.57643119  5995","mean_motion":15.57643119,"eccentricity":0.0001555,"inclination_deg":97.2855,"raan_deg":344.672,"arg_perigee_deg":106.2329,"mean_anomaly_deg":235.9842,"bstar":-0.029386,"rev_number":599,"period_min":92.447363740449,"perigee_km":393.4271332336,"apogee_km":395.53341720619,"semimajor_km":6772.6172752199,"source":"CELESTRAK","updated_at":"2026-05-25T13:38:21.989656Z"}}}